This demonstration page uses our WeatherBlox Daily Observations layout. Learn more.

Hourly Observations for February 25, 2018

Temp ( °F °C ) Dew Point ( °F °C ) Humidity (%) Winds ( mph kmh ) Pressure ( in mb ) Visibility ( mi km ) Precip ( " mm )
12:15 am 00:15 Clear 24 -4.2 15 -9.5 67 67 WNW 7 11 30 1016 10 16.0934 0 0
12:35 am 00:35 Clear 23 -5.2 15 -9.5 72 72 W 8 13 30.03 1017 10 16.0934 0 0
12:55 am 00:55 Clear 23 -4.8 15 -9.5 70 70 WSW 8 13 30.03 1017 10 16.0934 0 0
1:15 am 01:15 Clear 23 -5 16 -8.9 74 74 SW 9 15 30.03 1017 10 16.0934 0 0
1:35 am 01:35 Clear 24 -4.5 16 -8.9 72 72 WSW 10 17 30 1016 10 16.0934 0 0
1:55 am 01:55 Clear 25 -4.1 16 -9 69 69 WSW 10 17 30 1016 10 16.0934 0 0
2:15 am 02:15 Clear 24 -4.7 16 -9.1 72 72 W 12 19 30.06 1018 10 16.0934 0 0
2:35 am 02:35 Clear 23 -5 15 -9.2 73 73 W 10 17 30.03 1017 10 16.0934 0 0
2:55 am 02:55 Clear 22 -5.7 15 -9.5 75 75 W 9 15 30.03 1017 10 16.0934 0 0
3:15 am 03:15 Clear 22 -5.7 15 -9.7 74 74 W 9 15 30.03 1017 10 16.0934 0 0
3:35 am 03:35 Clear 23 -5.2 15 -9.6 72 72 W 9 15 30.03 1017 10 16.0934 0 0
3:55 am 03:55 Clear 23 -4.8 15 -9.6 69 69 WSW 7 11 30.03 1017 10 16.0934 0 0
4:15 am 04:15 Clear 20 -6.8 14 -10 78 78 SW 7 11 30.03 1017 10 16.0934 0 0
4:35 am 04:35 Clear 21 -6.2 15 -9.7 77 77 SW 7 11 30.03 1017 10 16.0934 0 0
4:55 am 04:55 Clear 20 -6.9 15 -9.7 81 81 SW 8 13 30.06 1018 10 16.0934 0 0
5:15 am 05:15 Clear 20 -6.8 15 -9.6 81 81 SW 7 11 30.06 1018 10 16.0934 0 0
5:35 am 05:35 Clear 21 -6.1 15 -9.3 78 78 WSW 7 11 30.06 1018 10 16.0934 0 0
5:55 am 05:55 Clear 23 -5.2 15 -9.2 74 74 WSW 7 11 30.06 1018 10 16.0934 0 0
6:15 am 06:15 Clear 23 -5.1 15 -9.2 73 73 WSW 8 13 30.06 1018 10 16.0934 0 0
6:35 am 06:35 Clear 22 -5.6 15 -9.7 73 73 W 5 7 30.06 1018 10 16.0934 0 0
6:55 am 06:55 Clear 20 -6.5 14 -10.1 76 76 W 6 9 30.06 1018 10 16.0934 0 0
7:15 am 07:15 Clear 21 -6.3 15 -9.6 78 78 W 8 13 30.06 1018 10 16.0934 0 0
7:35 am 07:35 Sunny 21 -6 15 -9.5 77 77 W 9 15 30.06 1018 10 16.0934 0 0
7:55 am 07:55 Sunny 23 -5 15 -9.2 73 73 W 7 11 30.06 1018 10 16.0934 0 0
8:15 am 08:15 Sunny 26 -3.3 17 -8.1 70 70 W 9 15 30.06 1018 10 16.0934 0 0
8:35 am 08:35 Sunny 29 -1.7 18 -7.6 64 64 W 12 19 30.06 1018 10 16.0934 0 0
8:55 am 08:55 Sunny 31 -0.8 19 -7.1 63 63 WSW 10 17 30.03 1017 10 16.0934 0 0
9:15 am 09:15 Sunny 31 -0.5 20 -6.8 63 63 WSW 10 17 30.06 1018 10 16.0934 0 0
9:35 am 09:35 Sunny 33 0.4 21 -6 63 63 W 13 20 30.06 1018 10 16.0934 0 0
9:55 am 09:55 Sunny 35 1.8 21 -6 57 57 W 14 22 30.06 1018 10 16.0934 0 0
10:15 am 10:15 Sunny 37 2.9 22 -5.8 53 53 WSW 15 24 30.03 1017 10 16.0934 0 0
10:35 am 10:35 Sunny 40 4.2 20 -6.6 46 46 WSW 15 24 30.03 1017 10 16.0934 0 0
10:55 am 10:55 Sunny 41 4.8 17 -8.1 39 39 WSW 18 30 30.03 1017 10 16.0934 0 0
11:15 am 11:15 Sunny 43 6 17 -8.3 35 35 WSW 16 26 30 1016 10 16.0934 0 0
11:35 am 11:35 Sunny 43 6 15 -9.2 33 33 W 16 26 30 1016 10 16.0934 0 0
11:55 am 11:55 Sunny 44 6.9 17 -8.6 32 32 W 17 28 30 1016 10 16.0934 0 0
12:15 pm 12:15 Sunny 44 6.8 16 -9 32 32 W 21 33 30 1016 10 16.0934 0 0
12:35 pm 12:35 Sunny 45 7.4 15 -9.5 29 29 W 16 26 30 1016 10 16.0934 0 0
12:55 pm 12:55 Sunny 46 7.6 15 -9.6 29 29 WSW 12 19 29.97 1015 10 16.0934 0 0
1:15 pm 13:15 Sunny 47 8.2 15 -9.7 27 27 SW 16 26 29.97 1015 10 16.0934 0 0
1:35 pm 13:35 Sunny 48 8.8 16 -9.1 27 27 W 20 31 29.94 1014 10 16.0934 0 0
1:55 pm 13:55 Sunny 48 8.8 15 -9.7 26 26 W 22 35 29.94 1014 10 16.0934 0 0
2:15 pm 14:15 Partly Cloudy 48 8.9 15 -9.6 26 26 WSW 16 26 29.94 1014 10 16.0934 0 0
2:35 pm 14:35 Partly Cloudy 48 9.1 15 -9.6 26 26 W 23 37 29.94 1014 10 16.0934 0 0
2:55 pm 14:55 Partly Cloudy 48 8.9 14 -10.2 25 25 W 21 33 29.91 1013 10 16.0934 0 0
3:15 pm 15:15 Sunny 49 9.2 14 -9.8 25 25 W 18 30 29.94 1014 10 16.0934 0 0
3:35 pm 15:35 Sunny 48 8.8 16 -8.9 28 28 WNW 16 26 29.94 1014 10 16.0934 0 0
3:55 pm 15:55 Sunny 48 8.8 15 -9.6 26 26 W 14 22 29.94 1014 10 16.0934 0 0
4:15 pm 16:15 Sunny 47 8.5 17 -8.6 29 29 W 10 17 29.97 1015 10 16.0934 0 0
4:35 pm 16:35 Sunny 47 8.2 17 -8.2 31 31 NW 12 19 29.97 1015 10 16.0934 0 0
4:55 pm 16:55 Sunny 46 8 17 -8.5 30 30 WNW 13 20 29.97 1015 10 16.0934 0 0
5:15 pm 17:15 Sunny 46 7.5 17 -8.2 32 32 WNW 13 20 30 1016 10 16.0934 0 0
5:35 pm 17:35 Sunny 45 7 16 -9.1 31 31 W 17 28 30 1016 10 16.0934 0 0
5:55 pm 17:55 Sunny 43 5.9 15 -9.2 33 33 W 13 20 30.06 1018 10 16.0934 0 0
6:15 pm 18:15 Sunny 40 4.6 15 -9.3 36 36 W 8 13 30.06 1018 10 16.0934 0 0
6:35 pm 18:35 Clear 38 3.4 15 -9.6 38 38 WNW 5 7 30.06 1018 10 16.0934 0 0
6:55 pm 18:55 Clear 36 2 14 -10 41 41 W 5 7 30.09 1019 10 16.0934 0 0
7:15 pm 19:15 Clear 35 1.6 14 -10 42 42 W 5 7 30.09 1019 10 16.0934 0 0
7:35 pm 19:35 Clear 34 1.1 15 -9.5 45 45 SW 3 6 30.09 1019 10 16.0934 0 0
7:55 pm 19:55 Clear 34 1 15 -9.5 46 46 SW 3 6 30.09 1019 10 16.0934 0 0
8:15 pm 20:15 Clear 33 0.3 15 -9.5 48 48 SW 3 6 30.09 1019 10 16.0934 0 0
8:35 pm 20:35 Clear 33 0.5 15 -9.5 47 47 SW 3 6 30.09 1019 10 16.0934 0 0
8:55 pm 20:55 Clear 31 -0.5 15 -9.6 51 51 Calm 30.12 1020 10 16.0934 0 0
9:15 pm 21:15 Clear 31 -0.6 15 -9.4 52 52 Calm 30.15 1021 10 16.0934 0 0
9:35 pm 21:35 Clear 30 -0.9 15 -9.3 53 53 Calm 30.15 1021 10 16.0934 0 0
9:55 pm 21:55 Clear 33 0.4 16 -9.1 49 49 SW 9 15 30.12 1020 10 16.0934 0 0
10:15 pm 22:15 Clear 30 -0.9 15 -9.2 54 54 SW 6 9 30.15 1021 10 16.0934 0 0
10:35 pm 22:35 Clear 32 -0.2 16 -9.1 52 52 SW 6 9 30.15 1021 10 16.0934 0 0
10:55 pm 22:55 Clear 30 -1.1 16 -9 55 55 SW 5 7 30.18 1022 10 16.0934 0 0
11:15 pm 23:15 Clear 29 -1.4 16 -9.1 56 56 SW 7 11 30.18 1022 10 16.0934 0 0
11:35 pm 23:35 Clear 30 -1.2 16 -9.1 55 55 SW 8 13 30.18 1022 10 16.0934 0 0
11:55 pm 23:55 Clear 28 -2.1 16 -9 60 60 SW 7 11 30.18 1022 10 16.0934 0 0

Powered by AerisWeather